Weather History for Fayetteville, AR

Change the Weather History Date:

Friday, December 28, 2012

  Actual Average Record
Temperature  
Mean Temperature 30 °F 36 °F  
Max Temperature 37 °F 46 °F 66 °F (1984)
Min Temperature 23 °F 25 °F 9 °F (1983)
Degree Days  
Heating Degree Days 35 29  
Month to date heating degree days 597 765  
Since 1 July heating degree days 1410 1594  
Moisture  
Dew Point 27 °F    
Average Humidity 84    
Maximum Humidity 100    
Minimum Humidity 68    
Precipitation  
Precipitation 0.04 in 0.09 in 0.84 in (1954)
Month to date precipitation 1.97 2.96  
Year to date precipitation 29.88 48.23  
Sea Level Pressure  
Sea Level Pressure 29.98 in    
Wind  
Wind Speed 6 mph (WNW)    
Max Wind Speed 17 mph    
Max Gust Speed 23 mph    
Visibility 8 miles    
Events Fog , Snow    
T = Trace of Precipitation, MM = Missing Value Source: NWS Daily Summary

Daily Weather History Graph

Daily Weather History Graph

Search for Another Location

Airport:

Trip Planner

Search our weather history database for the weather conditions in past years. The results will help you decide how hot, cold, wet, or windy it might be!

Date:

Astronomy

Dec. 28, 2012 Rise Set
Actual Time 7:26 AM CST 5:10 PM CST
Civil Twilight 6:57 AM CST 5:39 PM CST
Nautical Twilight 6:25 AM CST 6:11 PM CST
Astronomical Twilight 5:54 AM CST 6:42 PM CST
Moon 5:46 PM CST (12/28) 7:22 AM CST (12/28)
Length of Visible Light 10h 41m
Length of Day
9h 44m
Full, 100% of the Moon is Illuminated
Dec 28
Full
Jan 4
Last Quarter
Jan 11
New
Jan 18
First Quarter
Jan 26
Full

Hourly Weather History & Observations

Time (CST) Temp. Windchill Dew Point Humidity Pressure Visibility Wind Dir Wind Speed Gust Speed Precip Events Conditions
12:53 AM 32.0 °F 27.5 °F 28.9 °F 88% 30.00 in 10.0 mi South 4.6 mph - N/A   Overcast
1:39 AM 32.0 °F 26.4 °F 28.4 °F 87% 29.96 in 10.0 mi South 5.8 mph - N/A   Overcast
1:53 AM 32.0 °F 25.6 °F 28.9 °F 88% 29.99 in 10.0 mi SSW 6.9 mph - N/A   Overcast
2:53 AM 32.0 °F 25.6 °F 28.9 °F 88% 30.00 in 10.0 mi South 6.9 mph - N/A   Overcast
3:53 AM 33.1 °F - 28.9 °F 85% 29.99 in 10.0 mi Calm Calm - N/A   Overcast
4:10 AM 33.8 °F - 28.4 °F 81% 29.95 in 10.0 mi Calm Calm - N/A   Overcast
4:53 AM 33.1 °F - 28.9 °F 85% 29.98 in 10.0 mi Calm Calm - N/A   Overcast
5:53 AM 33.1 °F - 28.9 °F 85% 29.97 in 10.0 mi Calm Calm - N/A   Overcast
6:53 AM 33.1 °F - 28.9 °F 85% 29.96 in 10.0 mi Calm Calm - N/A   Overcast
7:36 AM 33.8 °F - 28.4 °F 81% 29.93 in 10.0 mi Calm Calm - N/A   Overcast
7:53 AM 33.1 °F 30.0 °F 30.0 °F 89% 29.98 in 10.0 mi SSE 3.5 mph - N/A   Overcast
8:53 AM 34.0 °F - 30.0 °F 85% 29.97 in 8.0 mi Calm Calm - N/A   Overcast
9:53 AM 35.1 °F 30.1 °F 30.9 °F 85% 29.97 in 9.0 mi North 5.8 mph - N/A   Overcast
10:53 AM 36.0 °F - 30.0 °F 79% 29.98 in 6.0 mi Calm Calm - N/A   Haze
11:53 AM 35.6 °F 29.9 °F 30.2 °F 81% 29.92 in 6.0 mi NW 6.9 mph - N/A   Haze
12:53 PM 36.0 °F 28.5 °F 30.0 °F 79% 29.94 in 6.0 mi NW 10.4 mph - N/A   Haze
1:53 PM 36.0 °F 29.0 °F 28.9 °F 76% 29.92 in 6.0 mi WNW 9.2 mph - N/A   Haze
2:33 PM 35.6 °F 27.5 °F 26.6 °F 70% 29.90 in 7.0 mi NW 11.5 mph - N/A   Overcast
2:50 PM 35.6 °F 27.5 °F 26.6 °F 70% 29.90 in 8.0 mi NW 11.5 mph - N/A   Overcast
2:53 PM 35.1 °F 26.4 °F 26.1 °F 70% 29.93 in 7.0 mi NW 12.7 mph - N/A   Overcast
3:02 PM 32.0 °F 22.5 °F 28.4 °F 87% 29.91 in 1.8 mi NW 12.7 mph - 0.00 in Snow Light Snow
3:16 PM 30.2 °F 23.4 °F 28.4 °F 93% 29.91 in 0.5 mi NW 6.9 mph - 0.00 in Fog , Snow Snow
3:53 PM 30.9 °F 23.5 °F 30.0 °F 96% 29.95 in 0.5 mi NW 8.1 mph - 0.02 in Fog , Snow Snow
4:53 PM 30.9 °F 22.2 °F 30.0 °F 96% 29.96 in 1.2 mi NW 10.4 mph - 0.02 in Snow Light Snow
5:24 PM 30.2 °F 21.3 °F 28.4 °F 93% 29.94 in 3.0 mi NW 10.4 mph - 0.00 in   Overcast
5:53 PM 30.9 °F 25.2 °F 28.9 °F 92% 29.99 in 6.0 mi NW 5.8 mph - 0.00 in   Overcast
6:53 PM 30.9 °F 22.8 °F 28.0 °F 89% 30.01 in 7.0 mi WNW 9.2 mph - N/A   Overcast
7:53 PM 30.0 °F 21.1 °F 25.0 °F 82% 30.02 in 9.0 mi NW 10.4 mph - N/A   Overcast
8:53 PM 30.0 °F 23.2 °F 25.0 °F 82% 30.04 in 9.0 mi NW 6.9 mph - N/A   Overcast
9:53 PM 28.9 °F 19.8 °F 23.0 °F 78% 30.06 in 9.0 mi WNW 10.4 mph - N/A   Overcast
10:53 PM 26.1 °F 14.5 °F 17.1 °F 69% 30.09 in 10.0 mi NW 13.8 mph 20.7 mph N/A   Mostly Cloudy
11:08 PM 24.8 °F 13.4 °F 15.8 °F 69% 30.06 in 10.0 mi NW 12.7 mph - N/A   Mostly Cloudy
11:53 PM 23.0 °F 13.9 °F 15.1 °F 72% 30.11 in 10.0 mi WNW 8.1 mph - N/A   Clear